Location: New Frontier Mobile Home Park
(32.8448°N, 116.9675°W)
Time: 22:46:17
(UTC+00:00)

Cosmos 1697 Rocket - Pass Details

Date: 14 July 2020
Orbit: 834 x 842 km, 71.0° (Epoch: 05 August)

Event Time Altitude Azimuth Distance (km) Brightness Sun altitude
Rises 10:41:04 0° 333° (NNW) 3,387 6.1 -22.5°
Reaches altitude 10° 10:43:33 10° 329° (NNW) 2,448 5.3 -22.2°
Maximum altitude 10:48:59 53° 254° (WSW) 1,014 2.7 -21.4°
Enters shadow 10:50:20 43° 210° (SSW) 1,154 2.9 -21.2°
